VIASAT-2

Last updated on Sun Jun 21 2026 00:03:07 GMT+0000 (Coordinated Universal Time)

1 42740U 17029A 26171.37820375 -.00000270 00000+0 00000+0 0 9996 2 42740 0.0166 300.6474 0000207 83.9333 310.2681 1.00271244 33237
UTC large
Height (km)
Speed (km/s)
/
Latitude / Longitude
Inclination (degrees)
Orbital Period (minutes)
Azimuth
Elevation
Range (km)
Doppler Factor

Next 0 passes for location: London (51.5072 / 0.1276)

No passes found over London.
VIASAT-2